Weather History for Philadelphia Wings Airport, PA

Change the Weather History Date:

Sunday, January 19, 2014

  Actual Average (KPNE) Record (KPNE)
Temperature  
Mean Temperature 31 °F -  
Max Temperature 39 °F 34 °F 50 °F (1999)
Min Temperature 23 °F 21 °F 7 °F (1997)
Degree Days  
Heating Degree Days 34    
Moisture  
Dew Point 18 °F    
Average Humidity 59    
Maximum Humidity 70    
Minimum Humidity 51    
Precipitation  
Precipitation 0.00 in - - ()
Sea Level Pressure  
Sea Level Pressure 29.78 in    
Wind  
Wind Speed 6 mph (WSW)    
Max Wind Speed 14 mph    
Max Gust Speed 20 mph    
Visibility 10 miles    
Events      
Averages and records for this station are not official NWS values.
T = Trace of Precipitation, MM = Missing Value Source: NWS Daily Summary

Daily Weather History Graph

Daily Weather History Graph

Search for Another Location

Airport:

Trip Planner

Search our weather history database for the weather conditions in past years. The results will help you decide how hot, cold, wet, or windy it might be!

Date:

Astronomy

Jan. 19, 2014 Rise Set
Actual Time 7:19 AM EST 5:04 PM EST
Civil Twilight 6:49 AM EST 5:34 PM EST
Nautical Twilight 6:16 AM EST 6:07 PM EST
Astronomical Twilight 5:44 AM EST 6:39 PM EST
Moon 8:40 PM EST (1/19) 8:48 AM EST (1/19)
Length of Visible Light 10h 44m
Length of Day
9h 44m
Waning Gibbous, 89% of the Moon is Illuminated
Jan 19
Waning Gibbous
Jan 24
Last Quarter
Jan 30
New
Feb 6
First Quarter
Feb 14
Full

Hourly Weather History & Observations

Time (EST) Temp. Windchill Dew Point Humidity Pressure Visibility Wind Dir Wind Speed Gust Speed Precip Events Conditions
12:15 AM 23.0 °F 14.7 °F 12.2 °F 63% 29.89 in 10.0 mi West 6.9 mph - N/A   Clear
12:35 AM 23.0 °F 13.9 °F 12.2 °F 63% 29.89 in 10.0 mi West 8.1 mph - N/A   Clear
12:55 AM 23.0 °F 14.7 °F 12.2 °F 63% 29.89 in 10.0 mi West 6.9 mph - N/A   Clear
1:15 AM 23.0 °F 15.8 °F 12.2 °F 63% 29.89 in 10.0 mi West 5.8 mph - N/A   Clear
1:35 AM 23.0 °F 17.0 °F 12.2 °F 63% 29.89 in 10.0 mi West 4.6 mph - N/A   Clear
1:55 AM 23.0 °F 14.7 °F 12.2 °F 63% 29.89 in 10.0 mi West 6.9 mph - N/A   Clear
2:15 AM 23.0 °F - 12.2 °F 63% 29.89 in 10.0 mi Calm Calm - N/A   Clear
2:35 AM 23.0 °F 15.8 °F 12.2 °F 63% 29.89 in 10.0 mi West 5.8 mph - N/A   Clear
2:55 AM 23.0 °F 17.0 °F 12.2 °F 63% 29.88 in 10.0 mi West 4.6 mph - N/A   Clear
3:15 AM 23.0 °F 17.0 °F 14.0 °F 68% 29.88 in 10.0 mi West 4.6 mph - N/A   Clear
3:35 AM 23.0 °F 14.7 °F 12.2 °F 63% 29.88 in 10.0 mi West 6.9 mph - N/A   Clear
3:55 AM 23.0 °F 14.7 °F 12.2 °F 63% 29.88 in 10.0 mi West 6.9 mph - N/A   Clear
4:15 AM 23.0 °F 18.4 °F 12.2 °F 63% 29.87 in 10.0 mi West 3.5 mph - N/A   Clear
4:35 AM 23.0 °F 18.4 °F 12.2 °F 63% 29.86 in 10.0 mi West 3.5 mph - N/A   Clear
4:55 AM 23.0 °F - 12.2 °F 63% 29.86 in 10.0 mi Calm Calm - N/A   Clear
5:15 AM 24.8 °F - 12.2 °F 59% 29.85 in 10.0 mi Calm Calm - N/A   Clear
5:35 AM 24.8 °F 20.5 °F 12.2 °F 59% 29.85 in 10.0 mi West 3.5 mph - N/A   Clear
5:55 AM 23.0 °F 18.4 °F 12.2 °F 63% 29.86 in 10.0 mi WSW 3.5 mph - N/A   Scattered Clouds
6:15 AM 23.0 °F 17.0 °F 14.0 °F 68% 29.85 in 10.0 mi WSW 4.6 mph - N/A   Overcast
6:35 AM 23.0 °F 18.4 °F 12.2 °F 63% 29.85 in 10.0 mi West 3.5 mph - N/A   Mostly Cloudy
6:55 AM 23.0 °F - 14.0 °F 68% 29.84 in 10.0 mi Calm Calm - N/A   Overcast
7:15 AM 24.8 °F 20.5 °F 14.0 °F 64% 29.84 in 10.0 mi WSW 3.5 mph - N/A   Overcast
7:35 AM 24.8 °F 20.5 °F 14.0 °F 64% 29.84 in 10.0 mi SW 3.5 mph - N/A   Scattered Clouds
7:55 AM 24.8 °F 20.5 °F 14.0 °F 64% 29.83 in 10.0 mi SSW 3.5 mph - N/A   Clear
8:15 AM 26.6 °F 21.2 °F 14.0 °F 59% 29.83 in 10.0 mi SW 4.6 mph - N/A   Clear
8:35 AM 26.6 °F 21.2 °F 14.0 °F 59% 29.83 in 10.0 mi SSW 4.6 mph - N/A   Clear
8:55 AM 26.6 °F 21.2 °F 14.0 °F 59% 29.83 in 10.0 mi SW 4.6 mph - N/A   Clear
9:15 AM 26.6 °F 21.2 °F 14.0 °F 59% 29.82 in 10.0 mi SSW 4.6 mph - N/A   Clear
9:35 AM 28.4 °F 24.6 °F 14.0 °F 55% 29.83 in 10.0 mi SW 3.5 mph - N/A   Scattered Clouds
9:55 AM 28.4 °F 22.2 °F 14.0 °F 55% 29.82 in 10.0 mi SSW 5.8 mph - N/A   Scattered Clouds
10:15 AM 30.2 °F 24.3 °F 14.0 °F 51% 29.82 in 10.0 mi SW 5.8 mph - N/A   Scattered Clouds
10:35 AM 32.0 °F 25.6 °F 15.8 °F 51% 29.81 in 10.0 mi WSW 6.9 mph - N/A   Scattered Clouds
10:55 AM 32.0 °F 26.4 °F 17.6 °F 55% 29.80 in 10.0 mi WSW 5.8 mph - N/A   Clear
11:15 AM 32.0 °F 25.6 °F 17.6 °F 55% 29.79 in 10.0 mi SW 6.9 mph - N/A   Clear
11:35 AM 32.0 °F 24.2 °F 17.6 °F 55% 29.77 in 10.0 mi WSW 9.2 mph - N/A   Clear
11:55 AM 32.0 °F 25.6 °F 17.6 °F 55% 29.77 in 10.0 mi SW 6.9 mph - N/A   Clear
12:15 PM 32.0 °F 25.6 °F 17.6 °F 55% 29.76 in 10.0 mi WSW 6.9 mph - N/A   Clear
12:35 PM 33.8 °F 28.6 °F 17.6 °F 52% 29.75 in 10.0 mi West 5.8 mph - N/A   Scattered Clouds
12:55 PM 33.8 °F 27.0 °F 19.4 °F 56% 29.73 in 10.0 mi SW 8.1 mph - N/A   Clear
1:15 PM 35.6 °F 29.2 °F 21.2 °F 56% 29.72 in 10.0 mi SW 8.1 mph - N/A   Scattered Clouds
1:35 PM 35.6 °F 27.5 °F 21.2 °F 56% 29.71 in 10.0 mi WSW 11.5 mph 16.1 mph N/A   Mostly Cloudy
1:55 PM 35.6 °F 29.2 °F 21.2 °F 56% 29.70 in 10.0 mi WSW 8.1 mph 16.1 mph N/A   Mostly Cloudy
2:15 PM 37.4 °F 31.4 °F 23.0 °F 56% 29.71 in 10.0 mi WSW 8.1 mph - N/A   Mostly Cloudy
2:35 PM 37.4 °F 30.8 °F 23.0 °F 56% 29.70 in 10.0 mi WSW 9.2 mph 16.1 mph N/A   Overcast
2:55 PM 37.4 °F 31.4 °F 23.0 °F 56% 29.70 in 10.0 mi West 8.1 mph - N/A   Overcast
3:15 PM 39.2 °F 34.2 °F 23.0 °F 52% 29.70 in 10.0 mi WSW 6.9 mph 17.3 mph N/A   Mostly Cloudy
3:35 PM 39.2 °F 31.2 °F 23.0 °F 52% 29.70 in 10.0 mi WSW 13.8 mph 19.6 mph N/A   Scattered Clouds
3:55 PM 39.2 °F 33.6 °F 23.0 °F 52% 29.70 in 10.0 mi WSW 8.1 mph - N/A   Clear
4:15 PM 39.2 °F 34.2 °F 23.0 °F 52% 29.71 in 10.0 mi West 6.9 mph - N/A   Clear
4:35 PM 39.2 °F 32.5 °F 24.8 °F 56% 29.70 in 10.0 mi WSW 10.4 mph 18.4 mph N/A   Clear
4:55 PM 37.4 °F 29.8 °F 23.0 °F 56% 29.71 in 10.0 mi WSW 11.5 mph 17.3 mph N/A   Clear
5:15 PM 37.4 °F 31.4 °F 23.0 °F 56% 29.71 in 10.0 mi SW 8.1 mph 16.1 mph N/A   Clear
5:35 PM 37.4 °F 32.8 °F 24.8 °F 60% 29.71 in 10.0 mi WSW 5.8 mph - N/A   Clear
5:55 PM 37.4 °F 32.8 °F 24.8 °F 60% 29.72 in 10.0 mi WSW 5.8 mph - N/A   Clear
6:15 PM 37.4 °F 34.9 °F 24.8 °F 60% 29.72 in 10.0 mi SW 3.5 mph - N/A   Clear
6:35 PM 37.4 °F 32.8 °F 26.6 °F 65% 29.72 in 10.0 mi SW 5.8 mph - N/A   Clear
6:55 PM 37.4 °F 32.8 °F 26.6 °F 65% 29.71 in 10.0 mi SW 5.8 mph - N/A   Clear
7:15 PM 35.6 °F 32.8 °F 26.6 °F 70% 29.70 in 10.0 mi SW 3.5 mph - N/A   Scattered Clouds
7:55 PM 37.4 °F 33.8 °F 26.6 °F 65% 29.71 in 10.0 mi WSW 4.6 mph - N/A   Clear
8:15 PM 37.4 °F 32.1 °F 24.8 °F 60% 29.71 in 10.0 mi WSW 6.9 mph - N/A   Clear
8:35 PM 37.4 °F 32.8 °F 26.6 °F 65% 29.71 in 10.0 mi SW 5.8 mph - N/A   Clear
8:55 PM 37.4 °F 33.8 °F 26.6 °F 65% 29.71 in 10.0 mi SW 4.6 mph - N/A   Clear
9:15 PM 37.4 °F 32.8 °F 24.8 °F 60% 29.71 in 10.0 mi WSW 5.8 mph - N/A   Clear
9:35 PM 37.4 °F 32.8 °F 24.8 °F 60% 29.70 in 10.0 mi WSW 5.8 mph - N/A   Clear
9:55 PM 37.4 °F 32.1 °F 23.0 °F 56% 29.70 in 10.0 mi WSW 6.9 mph - N/A   Clear
10:15 PM 37.4 °F 31.4 °F 23.0 °F 56% 29.70 in 10.0 mi WSW 8.1 mph - N/A   Clear
10:35 PM 37.4 °F 31.4 °F 23.0 °F 56% 29.70 in 10.0 mi WSW 8.1 mph - N/A   Clear
10:55 PM 37.4 °F 30.8 °F 23.0 °F 56% 29.69 in 10.0 mi WSW 9.2 mph - N/A   Clear
11:15 PM 37.4 °F 31.4 °F 23.0 °F 56% 29.70 in 10.0 mi WSW 8.1 mph - N/A   Clear
11:35 PM 37.4 °F 31.4 °F 23.0 °F 56% 29.70 in 10.0 mi WSW 8.1 mph - N/A   Clear
11:55 PM 37.4 °F 32.1 °F 23.0 °F 56% 29.69 in 10.0 mi WSW 6.9 mph - N/A   Clear